Location: Unspecified
(0.0000°N, 0.0000°E)
Time: 13:04:44
(UTC+00:00)

Hubble Space Telescope - Pass Details

Date: 25 May 2017
Orbit: 538 x 542 km, 28.5° (Epoch: 25 May)

Event Time Altitude Azimuth Distance (km) Brightness Sun altitude
Rises 18:32:19 0° 248° (WSW) 2,675 5.1 -8.2°
Reaches altitude 10° 18:34:37 10° 254° (WSW) 1,784 4.3 -8.8°
Maximum altitude 18:38:38 50° 330° (NNW) 681 1.7 -9.7°
Drops below altitude 10° 18:42:38 10° 46° (NE) 1,781 3.2 -10.6°
Sets 18:44:57 0° 51° (NE) 2,671 4.0 -11.2°
